EW1104 Weather Reports


time (UTC)temp
F
wind
direction
speed
knots
gust
knots
rain 1hr
in
rain 24hr
in
rain mn
in
humidity
%
barometer
mb
20260510191559 75 238 0.0 0.9 0.00 0.02 0.02 54 1013.0
20260510190053 73 122 0.0 0.9 0.00 0.02 0.02 65 1013.2
20260510184552 74 256 0.0 0.9 0.00 0.02 0.02 63 1013.2
20260510183052 73 269 0.0 1.7 0.00 0.02 0.02 63 1013.1
20260510181552 75 96 0.0 1.7 0.00 0.02 0.02 64 1013.1
20260510180055 74 82 0.0 0.9 0.00 0.02 0.02 67 1013.3
20260510174547 73 84 0.0 0.9 0.00 0.02 0.02 67 1013.3
20260510173046 74 63 0.0 0.9 0.00 0.02 0.02 65 1013.2
20260510171543 73 127 0.0 0.9 0.00 0.02 0.02 69 1013.1
20260510170048 73 101 0.0 1.7 0.00 0.02 0.02 66 1013.3
20260510164548 72 150 0.0 0.9 0.00 0.02 0.02 69 1013.3
20260510163033 70 158 0.0 1.7 0.00 0.02 0.02 76 1013.4
20260510161528 68 270 0.0 2.6 0.00 0.02 0.02 78 1013.5
20260510160024 65 108 0.0 0.9 0.02 0.02 0.02 85 1013.5
20260510154539 63 112 0.0 0.9 0.02 0.02 0.02 92 1013.7
20260510153021 61 118 0.0 0.9 0.02 0.02 0.02 94 1013.7
20260510151515 60 98 0.0 0.0 0.02 0.02 0.02 95 1013.9
20260510150008 57 114 0.0 0.9 0.00 0.00 0.00 94 1013.7
20260510144512 56 84 0.0 0.9 0.00 0.00 0.00 94 1013.8
20260510143006 56 110 0.0 0.9 0.00 0.00 0.00 95 1013.8
20260510141503 55 143 0.0 0.0 0.00 0.00 0.00 95 1013.5
20260510140100 54 97 0.0 0.0 0.00 0.00 0.00 95 1013.5
20260510134607 54 56 0.0 0.9 0.00 0.00 0.00 95 1013.4
20260510133058 54 126 0.0 0.0 0.00 0.00 0.00 95 1013.6
20260510131556 53 126 0.0 0.0 0.00 0.00 0.00 95 1013.6
20260510124554 53 93 0.0 0.0 0.00 0.00 0.00 95 1013.2
20260510123054 53 19 0.0 0.9 0.00 0.00 0.00 95 1013.1
20260510121547 52 88 0.0 0.9 0.00 0.00 0.00 95 1012.7
20260510120045 52 86 0.0 0.0 0.00 0.00 0.00 95 1012.6
20260510114546 52 86 0.0 0.0 0.00 0.00 0.00 95 1012.7
20260510113053 51 86 0.0 0.0 0.00 0.00 0.00 95 1012.7
20260510111543 51 86 0.0 0.0 0.00 0.00 0.00 95 1012.5
20260510110041 51 86 0.0 0.0 0.00 0.00 0.00 95 1012.1
20260510104541 50 86 0.0 0.0 0.00 0.00 0.00 94 1011.8
20260510103039 50 86 0.0 0.0 0.00 0.00 0.00 94 1012.1
20260510101539 49 86 0.0 0.0 0.00 0.00 0.00 94 1012.0
20260510100037 49 77 0.0 0.0 0.00 0.00 0.00 94 1011.9
20260510094538 49 77 0.0 0.0 0.00 0.00 0.00 94 1011.9
20260510093036 49 78 0.0 0.9 0.00 0.00 0.00 94 1012.0
20260510091535 49 70 0.0 0.9 0.00 0.00 0.00 94 1012.0
20260510090034 49 74 0.0 0.9 0.00 0.00 0.00 94 1012.2
20260510084537 48 67 0.0 0.9 0.00 0.00 0.00 94 1012.3
20260510083032 48 92 0.0 0.9 0.00 0.00 0.00 94 1012.1
20260510081530 48 96 0.0 0.0 0.00 0.00 0.00 94 1011.6
20260510080032 48 96 0.0 0.0 0.00 0.00 0.00 94 1011.3
20260510074527 48 96 0.0 0.0 0.00 0.00 0.00 94 1011.3
20260510073029 49 96 0.0 0.0 0.00 0.00 0.00 94 1011.2
20260510071526 49 96 0.0 0.0 0.00 0.00 0.00 94 1011.2
20260510070024 49 96 0.0 0.0 0.00 0.00 0.00 94 1011.3
20260510064538 49 96 0.0 0.0 0.00 0.00 0.00 94 1011.3
20260510063026 49 97 0.0 0.0 0.00 0.00 0.00 94 1011.0
20260510061521 50 97 0.0 0.0 0.00 0.00 0.00 94 1011.0
20260510060019 50 98 0.0 0.0 0.00 0.00 0.00 94 1011.0
20260510054518 50 98 0.0 0.0 0.00 0.00 0.00 94 1011.2
20260510053035 51 97 0.0 0.0 0.00 0.00 0.00 94 1011.2
20260510051514 51 98 0.0 0.0 0.00 0.00 0.00 94 1011.2
20260510050011 52 97 0.0 0.0 0.00 0.00 0.00 94 1011.4
20260510044510 52 98 0.0 0.0 0.00 0.00 0.00 94 1011.4
20260510043009 52 98 0.0 0.0 0.00 0.00 0.00 94 1011.5
20260510041506 52 97 0.0 0.0 0.00 0.00 0.00 94 1011.5
20260510040003 52 97 0.0 0.0 0.00 0.00 0.00 94 1011.5
20260510034503 52 97 0.0 0.0 0.00 0.00 0.00 94 1011.2
20260510033003 51 97 0.0 0.0 0.00 0.00 0.00 94 1011.2
20260510031503 51 97 0.0 0.0 0.00 0.00 0.00 94 1011.1
20260510030002 51 97 0.0 0.0 0.00 0.00 0.00 93 1011.0
20260510024601 51 97 0.0 0.0 0.00 0.00 0.00 93 1011.0
20260510023101 51 97 0.0 0.0 0.00 0.00 0.00 93 1011.0
20260510021605 51 97 0.0 0.0 0.00 0.00 0.00 93 1011.1
20260510020059 51 97 0.0 0.0 0.00 0.00 0.00 93 1011.0
20260510014605 51 98 0.0 0.0 0.00 0.00 0.00 93 1011.0
20260510013130 51 97 0.0 0.0 0.00 0.00 0.00 93 1011.1
20260510011558 51 97 0.0 0.0 0.00 0.00 0.00 93 1011.0
20260510010058 51 98 0.0 0.0 0.00 0.00 0.00 93 1010.8
20260510004555 51 97 0.0 0.0 0.00 0.00 0.00 93 1010.6
20260510003105 52 98 0.0 0.0 0.00 0.00 0.00 93 1010.6
20260510001554 52 98 0.0 0.0 0.00 0.00 0.00 93 1010.5
20260510000114 52 97 0.0 0.0 0.00 0.00 0.00 92 1010.5
20260509234552 53 97 0.0 0.0 0.00 0.00 0.00 92 1010.4
20260509233052 53 98 0.0 0.0 0.00 0.00 0.00 92 1010.3
20260509231553 54 97 0.0 0.0 0.00 0.00 0.00 92 1010.1
20260509230052 54 98 0.0 0.0 0.00 0.00 0.00 92 1010.3
20260509224550 54 98 0.0 0.0 0.00 0.00 0.00 92 1010.5
20260509223049 54 108 0.0 0.0 0.00 0.00 0.00 92 1010.3
20260509221556 54 108 0.0 0.0 0.00 0.00 0.00 91 1010.6
20260509220047 54 108 0.0 0.0 0.00 0.00 0.00 91 1010.8
20260509214558 54 109 0.0 0.0 0.00 0.00 0.00 91 1010.9
20260509213046 54 109 0.0 0.0 0.00 0.00 0.00 89 1010.8
20260509211548 55 109 0.0 0.0 0.00 0.00 0.00 88 1011.0
20260509210048 55 109 0.0 1.7 0.00 0.00 0.00 86 1010.4
20260509204543 56 98 0.0 0.0 0.00 0.00 0.00 85 1010.8
20260509203044 56 98 0.0 0.9 0.00 0.00 0.00 86 1010.5
20260509201544 57 78 0.0 0.9 0.00 0.00 0.00 85 1010.5
20260509200047 57 82 0.0 0.9 0.00 0.00 0.00 85 1010.6
20260509194549 57 64 0.0 0.9 0.00 0.00 0.00 84 1010.8
20260509193040 57 70 0.0 0.9 0.00 0.00 0.00 83 1011.0